When you browse on this site, cookies collect data to enhance your experience and personalize the content and advertising you see.
Visit our Privacy Policy to learn more. By continuing to use the site, you agree to this use of cookies and data.
  • en France
  • Liste des pays
  • À 7 jours
  • Température de l'eau
  • Carte satellitaire
  • Carte météo
  • Widgets météo
  • user-avatar
    Se connecter

    Météo par heure à Eisenstadt

    Ce jour, 12 Décembre, Mercredi

    Heure Température Précipitation Vent Pression Humidité
    00:00 -1°C° 0.1 mm 4 m/s 722 mmHg 74%
    01:00 +1°C° 0 mm 1 m/s 722 mmHg 77%
    02:00 -1°C° 0.3 mm 2 m/s 722 mmHg 77%
    03:00 -1°C° 0.3 mm 2 m/s 722 mmHg 78%
    04:00 +1°C° 0.3 mm 2 m/s 722 mmHg 79%
    05:00 -1°C° 0.4 mm 2 m/s 722 mmHg 81%
    06:00 -1°C° 0.4 mm 2 m/s 722 mmHg 82%
    07:00 -1°C° 0.4 mm 2 m/s 723 mmHg 84%
    08:00 +1°C° 0.3 mm 2 m/s 723 mmHg 84%
    09:00 +1°C° 0.3 mm 2 m/s 723 mmHg 83%
    10:00 +1°C° 0.3 mm 2 m/s 723 mmHg 83%
    11:00 +1°C° 0.2 mm 3 m/s 723 mmHg 80%
    12:00 +1°C° 0.2 mm 3 m/s 723 mmHg 78%
    13:00 +2°C° 0.2 mm 3 m/s 724 mmHg 75%
    14:00 +2°C° 0.1 mm 2 m/s 724 mmHg 78%
    15:00 +1°C° 0.1 mm 2 m/s 724 mmHg 81%
    16:00 +1°C° 0.1 mm 2 m/s 724 mmHg 84%
    17:00 +1°C° 0.1 mm 1 m/s 724 mmHg 86%
    18:00 +1°C° 0.1 mm 1 m/s 724 mmHg 87%
    19:00 0°C° 0.1 mm 1 m/s 724 mmHg 89%
    20:00 0°C° 0.1 mm 1 m/s 724 mmHg 90%
    21:00 0°C° 0.1 mm 1 m/s 725 mmHg 91%
    22:00 0°C° 0.1 mm 1 m/s 725 mmHg 92%
    23:00 -1°C° 0.1 mm 1 m/s 725 mmHg 92%

    Demain, 13 Décembre, Jeudi

    Heure Température Précipitation Vent Pression Humidité
    00:00 -1°C° 0.1 mm 1 m/s 725 mmHg 93%
    01:00 -1°C° 0.1 mm 1 m/s 725 mmHg 93%
    02:00 -1°C° 0.1 mm 1 m/s 725 mmHg 93%
    03:00 -1°C° 0.1 mm 1 m/s 725 mmHg 94%
    04:00 -2°C° 0.1 mm 1 m/s 724 mmHg 94%
    05:00 -2°C° 0 mm 1 m/s 724 mmHg 94%
    06:00 -2°C° 0 mm 1 m/s 724 mmHg 93%
    07:00 -2°C° 0 mm 1 m/s 724 mmHg 93%
    08:00 -1°C° 0 mm 1 m/s 724 mmHg 90%
    09:00 -1°C° 0 mm 1 m/s 724 mmHg 87%
    10:00 0°C° 0 mm 1 m/s 724 mmHg 83%
    11:00 +1°C° 0 mm 1 m/s 724 mmHg 81%
    12:00 +1°C° 0 mm 1 m/s 724 mmHg 78%
    13:00 +1°C° 0 mm 2 m/s 724 mmHg 75%
    14:00 +1°C° 0 mm 1 m/s 723 mmHg 79%
    15:00 0°C° 0 mm 1 m/s 723 mmHg 84%
    16:00 -1°C° 0 mm 1 m/s 723 mmHg 88%
    17:00 -1°C° 0 mm 1 m/s 723 mmHg 89%
    18:00 -1°C° 0 mm 1 m/s 723 mmHg 90%
    19:00 -1°C° 0 mm 1 m/s 724 mmHg 91%
    20:00 -1°C° 0 mm 1 m/s 724 mmHg 91%
    21:00 -1°C° 0 mm 1 m/s 724 mmHg 91%
    22:00 -1°C° 0 mm 1 m/s 724 mmHg 91%
    23:00 -1°C° 0 mm 1 m/s 724 mmHg 91%

    Après-demain, 14 Décembre, Vendredi

    Heure Température Précipitation Vent Pression Humidité
    00:00 -1°C° 0 mm 1 m/s 724 mmHg 91%
    01:00 -1°C° 0 mm 1 m/s 724 mmHg 92%
    02:00 -2°C° 0 mm 1 m/s 724 mmHg 92%
    03:00 -2°C° 0 mm 1 m/s 724 mmHg 92%
    04:00 -2°C° 0 mm 1 m/s 724 mmHg 92%
    05:00 -2°C° 0.1 mm 1 m/s 724 mmHg 91%
    06:00 -2°C° 0.1 mm 1 m/s 724 mmHg 91%
    07:00 -1°C° 0.1 mm 1 m/s 724 mmHg 90%
    08:00 -1°C° 0.1 mm 1 m/s 725 mmHg 88%
    09:00 -3°C° 0.1 mm 2 m/s 725 mmHg 85%
    10:00 -2°C° 0.1 mm 2 m/s 725 mmHg 83%
    11:00 -2°C° 0 mm 2 m/s 725 mmHg 81%
    12:00 -2°C° 0 mm 2 m/s 725 mmHg 78%
    13:00 -1°C° 0 mm 2 m/s 725 mmHg 75%
    14:00 -2°C° 0 mm 2 m/s 725 mmHg 79%
    15:00 -3°C° 0 mm 2 m/s 725 mmHg 83%
    16:00 -1°C° 0 mm 1 m/s 725 mmHg 87%
    17:00 -2°C° 0 mm 1 m/s 725 mmHg 88%
    18:00 -2°C° 0 mm 1 m/s 725 mmHg 89%
    19:00 -3°C° 0 mm 1 m/s 725 mmHg 90%
    20:00 -3°C° 0 mm 1 m/s 725 mmHg 89%
    21:00 -3°C° 0 mm 1 m/s 726 mmHg 89%
    22:00 -3°C° 0 mm 1 m/s 726 mmHg 88%
    23:00 -3°C° 0 mm 1 m/s 726 mmHg 87%

    15 Décembre, Samedi

    Heure Température Précipitation Vent Pression Humidité
    00:00 -3°C° 0 mm 1 m/s 726 mmHg 87%
    01:00 -3°C° 0 mm 1 m/s 726 mmHg 86%
    02:00 -3°C° 0 mm 1 m/s 726 mmHg 85%
    03:00 -5°C° 0 mm 2 m/s 726 mmHg 85%
    04:00 -5°C° 0 mm 2 m/s 726 mmHg 84%
    05:00 -5°C° 0 mm 2 m/s 726 mmHg 84%
    06:00 -5°C° 0 mm 2 m/s 726 mmHg 84%
    07:00 -4°C° 0 mm 2 m/s 726 mmHg 84%
    08:00 -5°C° 0 mm 3 m/s 726 mmHg 81%
    09:00 -4°C° 0 mm 3 m/s 727 mmHg 79%
    10:00 -4°C° 0 mm 3 m/s 727 mmHg 77%
    11:00 -2°C° 0 mm 3 m/s 727 mmHg 75%
    12:00 -3°C° 0 mm 4 m/s 726 mmHg 73%
    13:00 -3°C° 0 mm 4 m/s 726 mmHg 70%
    14:00 -2°C° 0 mm 3 m/s 726 mmHg 74%
    15:00 -4°C° 0 mm 3 m/s 726 mmHg 77%
    16:00 -5°C° 0 mm 3 m/s 726 mmHg 80%
    17:00 -5°C° 0 mm 3 m/s 726 mmHg 81%
    18:00 -5°C° 0 mm 3 m/s 727 mmHg 81%
    19:00 -6°C° 0 mm 3 m/s 727 mmHg 82%
    20:00 -6°C° 0 mm 3 m/s 727 mmHg 82%
    21:00 -6°C° 0 mm 3 m/s 727 mmHg 82%
    22:00 -6°C° 0 mm 3 m/s 727 mmHg 82%
    23:00 -6°C° 0 mm 3 m/s 727 mmHg 82%

    16 Décembre, Dimanche

    Heure Température Précipitation Vent Pression Humidité
    00:00 -6°C° 0 mm 3 m/s 727 mmHg 81%
    01:00 -6°C° 0 mm 2 m/s 727 mmHg 81%
    02:00 -6°C° 0 mm 2 m/s 727 mmHg 80%
    03:00 -6°C° 0 mm 2 m/s 727 mmHg 79%
    04:00 -6°C° 0 mm 2 m/s 727 mmHg 78%
    05:00 -6°C° 0 mm 2 m/s 727 mmHg 78%
    06:00 -4°C° 0 mm 1 m/s 727 mmHg 77%
    07:00 -4°C° 0 mm 1 m/s 727 mmHg 76%
    08:00 -3°C° 0 mm 1 m/s 727 mmHg 72%
    09:00 -2°C° 0 mm 1 m/s 727 mmHg 68%
    10:00 -1°C° 0 mm 1 m/s 727 mmHg 64%
    11:00 0°C° 0 mm 1 m/s 727 mmHg 62%
    12:00 -1°C° 0 mm 2 m/s 727 mmHg 60%
    13:00 -1°C° 0 mm 2 m/s 726 mmHg 58%
    14:00 -1°C° 0 mm 2 m/s 726 mmHg 64%
    15:00 -2°C° 0 mm 2 m/s 726 mmHg 70%
    16:00 -3°C° 0 mm 2 m/s 726 mmHg 75%
    17:00 -3°C° 0 mm 2 m/s 726 mmHg 77%
    18:00 -5°C° 0 mm 3 m/s 726 mmHg 78%
    19:00 -5°C° 0 mm 3 m/s 726 mmHg 79%
    20:00 -4°C° 0 mm 3 m/s 726 mmHg 79%
    21:00 -4°C° 0 mm 3 m/s 726 mmHg 79%
    22:00 -4°C° 0 mm 3 m/s 726 mmHg 78%
    23:00 -4°C° 0.1 mm 3 m/s 725 mmHg 79%

    17 Décembre, Lundi

    Heure Température Précipitation Vent Pression Humidité
    00:00 -4°C° 0.1 mm 3 m/s 725 mmHg 80%
    01:00 -2°C° 0.1 mm 3 m/s 725 mmHg 81%
    02:00 -4°C° 0.2 mm 3 m/s 725 mmHg 83%
    03:00 -4°C° 0.2 mm 3 m/s 725 mmHg 85%
    04:00 -3°C° 0.2 mm 2 m/s 725 mmHg 88%
    05:00 -3°C° 0.1 mm 2 m/s 725 mmHg 89%
    06:00 -3°C° 0.1 mm 2 m/s 725 mmHg 89%
    07:00 -1°C° 0.1 mm 1 m/s 725 mmHg 90%
    08:00 -1°C° 0.1 mm 1 m/s 725 mmHg 89%
    09:00 0°C° 0.1 mm 1 m/s 726 mmHg 89%
    10:00 0°C° 0.1 mm 1 m/s 726 mmHg 88%
    11:00 0°C° 0.1 mm 1 m/s 726 mmHg 87%
    12:00 +1°C° 0.1 mm 1 m/s 726 mmHg 86%
    13:00 +1°C° 0.1 mm 1 m/s 725 mmHg 84%
    14:00 +1°C° 0 mm 1 m/s 725 mmHg 87%
    15:00 -1°C° 0 mm 0 m/s 726 mmHg 89%
    16:00 -1°C° 0 mm 0 m/s 726 mmHg 92%
    17:00 -1°C° 0 mm 0 m/s 726 mmHg 92%
    18:00 -2°C° 0 mm 0 m/s 726 mmHg 93%
    19:00 -2°C° 0 mm 0 m/s 726 mmHg 94%
    20:00 -2°C° 0 mm 0 m/s 726 mmHg 94%
    21:00 -2°C° 0 mm 0 m/s 726 mmHg 94%
    22:00 -2°C° 0 mm 0 m/s 727 mmHg 94%
    23:00 -1°C° 0.1 mm 0 m/s 727 mmHg 94%
    Voir plus